Richmond (Nsw), New South Wales

6:40 PM AEDT on February 09, 2016 (GMT +1100)
Richmond (Military)

Weather History for YSRI - June, 2013

Change the Weather History Date:

Thursday, June 6, 2013

  Actual Average (YSSY) Record (YSSY)
Temperature  
Mean Temperature 54 °F -  
Max Temperature 62 °F 64 °F 77 °F (1997)
Min Temperature 46 °F 40 °F 44 °F (2004)
Degree Days  
Heating Degree Days 11    
Growing Degree Days 4 (Base 50)    
Moisture  
Dew Point 52 °F    
Average Humidity 90    
Maximum Humidity 100    
Minimum Humidity 68    
Precipitation  
Precipitation 0.00 in 0.07 in - ()
Sea Level Pressure  
Sea Level Pressure 30.15 in    
Wind  
Wind Speed 1 mph ()    
Max Wind Speed 6 mph    
Max Gust Speed -    
Visibility 6.1 miles    
Events Rain    
Averages and records for this station are not official NWS values.
T = Trace of Precipitation, MM = Missing Value Source: Averaged Metar Reports

Daily Weather History Graph

Daily Weather History Graph

Search for Another Location

Airport or City:

Trip Planner

Search our weather history database for the weather conditions in past years. The results will help you decide how hot, cold, wet, or windy it might be!

Date:

Astronomy

Jun. 06, 2013 Rise Set
Actual Time 6:55 AM AEST 4:55 PM AEST
Civil Twilight 6:27 AM AEST 5:23 PM AEST
Nautical Twilight 5:56 AM AEST 5:53 PM AEST
Astronomical Twilight 5:26 AM AEST 6:24 PM AEST
Moon 4:28 AM AEST (6/6) 3:15 PM AEST (6/6)
Length of Visible Light 10h 55m
Length of Day
10h 00m
Waning Crescent, 6% of the Moon is Illuminated
Jun 6
Waning Crescent
Jun 9
New
Jun 17
First Quarter
Jun 23
Full
Jun 30
Last Quarter

Hourly Weather History & Observations

Time (AEST) Temp. Dew Point Humidity Pressure Visibility Wind Dir Wind Speed Gust Speed Precip Events Conditions
12:00 AM 55.4 °F 50.0 °F 82% 30.18 in 6.2 mi NE 1.2 mph - N/A   Unknown
12:30 AM 55.4 °F 48.2 °F 77% 30.18 in 6.2 mi ESE 1.2 mph - N/A   Unknown
1:00 AM 51.8 °F 50.0 °F 94% 30.15 in 6.2 mi Calm Calm - N/A   Unknown
1:30 AM 51.8 °F 50.0 °F 94% 30.15 in 6.2 mi Calm Calm - N/A   Unknown
2:00 AM 50.0 °F 50.0 °F 100% 30.18 in 6.2 mi Calm Calm - N/A   Unknown
2:30 AM 50.0 °F 50.0 °F 100% 30.18 in 6.2 mi Calm Calm - N/A   Unknown
3:00 AM 50.0 °F 50.0 °F 100% 30.18 in 6.2 mi Calm Calm - N/A   Unknown
3:30 AM 50.0 °F 50.0 °F 100% 30.15 in 6.2 mi Calm Calm - N/A   Unknown
4:00 AM 50.0 °F 50.0 °F 100% 30.15 in 6.2 mi Calm Calm - N/A   Unknown
4:30 AM 48.2 °F 48.2 °F 100% 30.15 in 6.2 mi Calm Calm - N/A   Unknown
5:00 AM 48.2 °F 48.2 °F 100% 30.15 in 4.3 mi Calm Calm - N/A   Unknown
5:30 AM 48.2 °F 48.2 °F 100% 30.18 in 6.2 mi NNE 3.5 mph - N/A   Unknown
6:00 AM 48.2 °F 48.2 °F 100% 30.18 in 6.2 mi Calm Calm - N/A   Unknown
6:30 AM 46.4 °F 46.4 °F 100% 30.18 in 6.2 mi Calm Calm - N/A   Unknown
7:00 AM 48.2 °F 48.2 °F 100% 30.18 in 6.2 mi Calm Calm - N/A   Unknown
7:30 AM 46.4 °F 46.4 °F 100% 30.21 in 6.2 mi Calm Calm - N/A   Unknown
8:00 AM 48.2 °F 48.2 °F 100% 30.21 in 6.2 mi Calm Calm - N/A   Unknown
8:30 AM 50.0 °F 50.0 °F 100% 30.21 in 6.2 mi Calm Calm - N/A   Unknown
9:00 AM 53.6 °F 51.8 °F 94% 30.21 in 6.2 mi Calm Calm - N/A   Unknown
9:30 AM 55.4 °F 50.0 °F 82% 30.21 in 6.2 mi Calm Calm - N/A   Unknown
10:00 AM 55.4 °F 50.0 °F 82% 30.21 in 6.2 mi Calm Calm - N/A   Unknown
10:30 AM 57.2 °F 50.0 °F 77% 30.18 in 6.2 mi Calm Calm - N/A   Unknown
11:00 AM 59.0 °F 51.8 °F 77% 30.18 in 6.2 mi SSW 1.2 mph - N/A   Unknown
11:30 AM 59.0 °F 51.8 °F 77% 30.18 in 6.2 mi SW 1.2 mph - N/A   Unknown
12:00 PM 60.8 °F 50.0 °F 68% 30.15 in 6.2 mi Calm Calm - N/A   Unknown
12:30 PM 60.8 °F 51.8 °F 72% 30.15 in 6.2 mi Calm Calm - N/A   Unknown
1:00 PM 60.8 °F 51.8 °F 72% 30.12 in 6.2 mi Calm Calm - N/A   Scattered Clouds
1:30 PM 62.6 °F 53.6 °F 72% 30.12 in 6.2 mi Calm Calm - N/A   Unknown
2:00 PM 62.6 °F 53.6 °F 72% 30.12 in 6.2 mi Calm Calm - N/A   Unknown
2:30 PM 60.8 °F 53.6 °F 77% 30.09 in 6.2 mi Calm Calm - N/A   Unknown
3:00 PM 60.8 °F 53.6 °F 77% 30.12 in 6.2 mi Calm Calm - N/A   Scattered Clouds
3:19 PM 60.8 °F 55.4 °F 82% 30.12 in 3.7 mi Calm Calm - N/A   Mostly Cloudy
3:30 PM 59.0 °F 55.4 °F 88% 30.12 in 6.2 mi Calm Calm - N/A   Overcast
3:37 PM 59.0 °F 55.4 °F 88% 30.12 in 6.2 mi Calm Calm - N/A   Light Drizzle
4:00 PM 59.0 °F 55.4 °F 88% 30.12 in 6.2 mi Calm Calm - N/A Rain Light Rain Showers
4:40 PM 57.2 °F 55.4 °F 94% 30.12 in 3.7 mi Calm Calm - N/A   Unknown
5:00 PM 57.2 °F 55.4 °F 94% 30.12 in 6.2 mi West 4.6 mph - N/A   Unknown
5:01 PM 57.2 °F 55.4 °F 94% 30.12 in 6.2 mi WSW 4.6 mph - N/A   Unknown
5:30 PM 57.2 °F 55.4 °F 94% 30.12 in 6.2 mi Calm Calm - N/A   Unknown
6:00 PM 55.4 °F 55.4 °F 100% 30.15 in 6.2 mi Calm Calm - N/A   Unknown
6:30 PM 57.2 °F 55.4 °F 94% 30.15 in 6.2 mi Calm Calm - N/A   Unknown
7:00 PM 55.4 °F 55.4 °F 100% 30.15 in 6.2 mi Calm Calm - N/A   Unknown
7:30 PM 55.4 °F 55.4 °F 100% 30.15 in 6.2 mi Calm Calm - N/A   Unknown
8:00 PM 57.2 °F 55.4 °F 94% 30.15 in 6.2 mi NNW 4.6 mph - N/A   Unknown
8:30 PM 59.0 °F 57.2 °F 94% 30.15 in 6.2 mi North 5.8 mph - N/A   Unknown
9:00 PM 59.0 °F 55.4 °F 88% 30.12 in 6.2 mi North 2.3 mph - N/A   Unknown
9:30 PM 59.0 °F 55.4 °F 88% 30.12 in 6.2 mi North 4.6 mph - N/A   Scattered Clouds
10:00 PM 59.0 °F 55.4 °F 88% 30.12 in 6.2 mi North 5.8 mph - N/A   Scattered Clouds
10:30 PM 59.0 °F 55.4 °F 88% 30.12 in 6.2 mi North 4.6 mph - N/A   Overcast
11:00 PM 59.0 °F 55.4 °F 88% 30.12 in 6.2 mi Calm Calm - N/A   Overcast
11:30 PM 59.0 °F 55.4 °F 88% 30.12 in 6.2 mi Calm Calm - N/A   Overcast